[[{"header":{"parameterUnit":"m.s-1","parameterCategory":1,"la1":30.2991,"la2":30.254,"lo1":-89.0895,"lo2":-89.0444,"dy":0.0017,"dx":0.0017,"nx":28,"ny":28,"refTime":"2026-03-04T03:00:00:Z","depth":0,"parameterNumber":2,"parameterNumberName":"U-component_of_WINDS"},"data":[0,0,0,0,0,0,0,0,0,0,0,0,0,0,0,0,0,0,0,0,0,0,0,0,0,0,0,0,0,0,0,0,0,0,0,0,0,0,0,0,0,0,0,0,0,0,0,0,0,0,0,0,0,0,0,0,0,0,-4.0797,-4.0798,0,-4.0936,-4.0938,-4.094,-4.0935,-4.0933,-4.0931,-4.0929,-4.1075,-4.1081,-4.1086,0,0,0,0,0,0,0,0,0,0,0,0,0,-4.0529,-4.0534,-4.0796,-4.0798,-4.08,-4.0936,-4.0938,-4.094,-4.0935,-4.0933,-4.093,-4.0928,-4.1073,-4.108,-4.1087,0,0,0,0,0,0,0,0,0,0,0,0,0,-4.0655,-4.0536,-4.0796,-4.0814,-4.0817,-4.0936,-4.0938,-4.0941,-4.0936,-4.0933,-4.093,-4.0927,-4.1071,-4.1079,-4.1088,-4.1199,0,0,-4.1114,-4.1117,0,0,0,0,0,0,0,0,-4.0648,-4.0665,-4.0809,-4.0813,-4.0816,-4.0915,-4.0897,-4.1027,-4.0936,-4.0891,-4.0929,-4.0926,-4.1024,-4.1037,-4.1069,-4.1206,-4.1212,-4.1115,-4.112,-4.1123,-4.1126,0,0,0,0,0,0,0,-4.0639,-4.0659,-4.0852,-4.0812,-4.0816,-4.0816,-4.0831,-4.0922,-4.0972,-4.0894,-4.0894,-4.0911,-4.1026,-4.1061,-4.1073,-4.1214,-4.1114,-4.1122,-4.1127,-4.1131,-4.1452,-4.1455,0,0,0,0,0,0,-4.0626,-4.0651,-4.0847,-4.0856,-4.0723,-4.0823,-4.084,-4.0886,-4.0971,-4.0981,-4.0913,-4.091,-4.1048,-4.1063,-4.1078,-4.1215,-4.1123,-4.1131,-4.1136,-4.1449,-4.1453,-4.1456,0,0,0,0,0,0,-4.062,-4.0644,-4.0842,-4.0754,-4.0779,-4.0831,-4.0884,-4.0891,-4.0926,-4.0985,-4.0995,-4.094,-4.1046,-4.1066,-4.1169,-4.122,-4.1135,-4.1143,-4.1445,-4.145,-4.1455,-4.1488,0,0,0,0,0,0,-4.0613,-4.0642,-4.0683,-4.0755,-4.0784,-4.0929,-4.0887,-4.0896,-4.094,-4.0938,-4.1013,-4.1022,-4.1045,-4.1157,-4.1178,-4.123,-4.115,-4.144,-4.1447,-4.1453,-4.1483,-4.1494,-4.1504,0,0,0,0,0,-4.0603,-4.0687,-4.0685,-4.0709,-4.0837,-4.0932,-4.0949,-4.0973,-4.0944,-4.0987,-4.1026,-4.102,-4.1211,-4.1167,-4.1191,-4.1246,-4.1437,-4.1445,-4.1453,-4.1478,-4.1492,-4.1503,0,0,0,0,0,0,-4.062,-4.0697,-4.0695,-4.0805,-4.0862,-4.0931,-4.0986,-4.0986,-4.1053,-4.1048,-4.1076,-4.1093,-4.1197,-4.1232,-4.1182,-4.136,-4.1321,-4.1334,-4.1332,-4.1346,-4.1356,-4.1344,-4.1157,0,0,0,0,0,-4.0637,-4.0707,-4.077,-4.0861,-4.089,-4.0933,-4.0976,-4.0989,-4.105,-4.1074,-4.1121,-4.1181,-4.1255,-4.1302,-4.1374,-4.1489,-4.1506,-4.154,-4.155,-4.1558,-4.1568,-4.1633,-4.1649,-4.1482,-4.1482,-4.1481,0,0,-4.0671,-4.0722,-4.0764,-4.0866,-4.0912,-4.0985,-4.0953,-4.1032,-4.1087,-4.1087,-4.1187,-4.1224,-4.1293,-4.1403,-4.1454,-4.1436,-4.1619,-4.1568,-4.1574,-4.158,-4.1643,-4.1659,-4.1673,-4.1487,-4.1486,-4.1485,0,0,-4.0771,-4.0816,-4.0897,-4.0944,-4.1014,-4.1043,-4.1063,-4.1133,-4.1157,-4.1258,-4.126,-4.1327,-4.1453,-4.1503,-4.1545,-4.1668,-4.1665,-4.1691,-4.1743,-4.1807,-4.182,-4.1832,-4.1876,-4.1891,-4.1701,-4.1701,-4.1701,0,-4.0805,-4.0914,-4.0939,-4.1018,-4.1063,-4.1067,-4.115,-4.1195,-4.1285,-4.1317,-4.1296,-4.1456,-4.1503,-4.1625,-4.1656,-4.169,-4.1714,-4.1681,-4.1816,-4.1828,-4.1839,-4.1882,-4.1898,-4.1704,-4.1703,-4.1703,-4.1703,0,-4.0953,-4.1029,-4.1087,-4.1173,-4.1225,-4.1306,-4.1344,-4.1395,-4.1405,-4.1437,-4.1542,-4.1599,-4.1682,-4.1713,-4.1723,-4.1838,-4.1825,-4.181,-4.177,-4.1857,-4.1898,-4.1914,-4.1707,-4.1706,-4.1706,-4.1705,0,0,-4.1065,-4.1166,-4.1186,-4.1226,-4.1306,-4.1366,-4.1448,-4.1529,-4.1572,-4.1636,-4.1706,-4.1815,-4.1802,-4.1849,-4.1867,-4.1922,-4.2017,-4.1901,-4.1903,-4.192,-4.2148,-4.2157,-4.2176,-4.2017,-4.202,-4.2023,-4.2142,0,-4.1172,-4.1317,-4.1343,-4.1469,-4.1541,-4.1548,-4.162,-4.1677,-4.171,-4.1777,-4.1814,-4.189,-4.1868,-4.1897,-4.1952,-4.1993,-4.2063,-4.1986,-4.2083,-4.2086,-4.2064,-4.2197,-4.2207,-4.2316,-4.2158,-4.216,-4.2162,0,-4.1316,-4.1383,-4.1517,-4.1588,-4.1619,-4.1683,-4.1761,-4.1825,-4.1891,-4.1912,-4.1966,-4.1978,-4.2066,-4.2025,-4.2147,-4.2094,-4.2136,-4.2163,-4.2168,-4.2176,-4.2128,-4.2208,-4.2352,-4.2368,-4.2187,-4.2185,-4.2184,0,-4.1384,-4.1508,-4.1604,-4.1638,-4.1724,-4.1769,-4.1807,-4.1871,-4.1919,-4.1988,-4.202,-4.2098,-4.2141,-4.2203,-4.2236,-4.2203,-4.2357,-4.2318,-4.2377,-4.2376,-4.2407,-4.2404,-4.2558,-4.2436,-4.2436,-4.2436,-4.2435,0,-4.1501,-4.1582,-4.1635,-4.1694,-4.1787,-4.1818,-4.1909,-4.1947,-4.2004,-4.2072,-4.2083,-4.2147,-4.2188,-4.2258,-4.2286,-4.2383,-4.2403,-4.2423,-4.2428,-4.2421,-4.2418,-4.2447,-4.244,-4.244,-4.2439,-4.2438,-4.2438,0,-4.159,-4.1629,-4.1734,-4.1808,-4.1829,-4.1893,-4.1957,-4.2016,-4.205,-4.2136,-4.2158,-4.2212,-4.2296,-4.2336,-4.244,-4.2458,-4.2569,-4.2571,-4.2546,-4.2548,-4.2604,-4.2598,-4.2781,-4.2807,-4.2669,-4.2671,-4.2672,0,-4.1661,-4.1724,-4.1805,-4.1851,-4.189,-4.1964,-4.2013,-4.2047,-4.2098,-4.2181,-4.223,-4.2314,-4.2383,-4.2517,-4.2566,-4.2647,-4.265,-4.2709,-4.2662,-4.2653,-4.265,-4.2645,-4.2652,-4.2716,-4.2718,-4.2719,-4.272,0,-4.1783,-4.18,-4.1869,-4.1947,-4.2006,-4.2069,-4.213,-4.2168,-4.2213,-4.227,-4.2355,-4.2409,-4.2516,-4.26,-4.2684,-4.2725,-4.2731,-4.2735,-4.2752,-4.2744,-4.2727,-4.2737,-4.2568,-4.273,-4.2729,-4.2728,-4.2727,-4.2727,-4.1865,-4.1922,-4.1988,-4.2066,-4.2116,-4.2175,-4.2234,-4.2276,-4.2347,-4.2436,-4.2453,-4.2544,-4.2612,-4.2726,-4.2771,-4.2844,-4.283,-4.2856,-4.2862,-4.2868,-4.2871,-4.2717,-4.2859,-4.2859,-4.2859,-4.2859,-4.2859,0,-4.1987,-4.2031,-4.2102,-4.2189,-4.2251,-4.2251,-4.232,-4.2372,-4.2452,-4.2515,-4.2583,-4.2682,-4.2765,-4.2822,-4.2906,-4.2954,-4.2958,-4.2974,-4.2971,-4.298,-4.2878,-4.2854,-4.2969,-4.2969,-4.2969,-4.2969,-4.2969,-4.2969,-4.2058,-4.2154,-4.2179,-4.2301,-4.2345,-4.2433,-4.2473,-4.2528,-4.2578,-4.2688,-4.2756,-4.2793,-4.2855,-4.2944,-4.302,-4.3035,-4.3065,-4.3082,-4.3096,-4.2999,-4.2987,-4.2976,-4.2953,-4.3088,-4.3088,-4.3192,-4.3193,-4.3194]},{"header":{"parameterUnit":"m.s-1","parameterCategory":1,"la1":30.2991,"la2":30.254,"lo1":-89.0895,"lo2":-89.0444,"dy":0.0017,"dx":0.0017,"nx":28,"ny":28,"refTime":"2026-03-04T03:00:00:Z","depth":0,"parameterNumber":3,"parameterNumberName":"V-component_of_WINDS"},"data":[0,0,0,0,0,0,0,0,0,0,0,0,0,0,0,0,0,0,0,0,0,0,0,0,0,0,0,0,0,0,0,0,0,0,0,0,0,0,0,0,0,0,0,0,0,0,0,0,0,0,0,0,0,0,0,0,0,0,2.2999,2.2999,0,2.3022,2.3023,2.3023,2.302,2.302,2.3019,2.3019,2.304,2.3041,2.3042,0,0,0,0,0,0,0,0,0,0,0,0,0,2.2951,2.2952,2.2999,2.2999,2.2999,2.3022,2.3023,2.3023,2.302,2.302,2.3019,2.3019,2.304,2.3041,2.3042,0,0,0,0,0,0,0,0,0,0,0,0,0,2.2973,2.2952,2.2999,2.3001,2.3001,2.3022,2.3023,2.3023,2.302,2.302,2.3019,2.3019,2.3039,2.3041,2.3042,2.3061,0,0,2.3046,2.3047,0,0,0,0,0,0,0,0,2.2971,2.2974,2.3,2.3001,2.3001,2.3018,2.3013,2.3036,2.302,2.3013,2.3019,2.3018,2.3033,2.3035,2.304,2.3062,2.3063,2.3046,2.3047,2.3048,2.3048,0,0,0,0,0,0,0,2.297,2.2973,2.3008,2.3001,2.3001,2.3,2.3003,2.3018,2.3025,2.3013,2.3013,2.3016,2.3033,2.3039,2.3041,2.3064,2.3046,2.3047,2.3048,2.3049,2.3106,2.3107,0,0,0,0,0,0,2.2968,2.2972,2.3007,2.3009,2.2985,2.3002,2.3004,2.3013,2.3025,2.3027,2.3017,2.3016,2.3037,2.3039,2.3041,2.3067,2.3048,2.3049,2.305,2.3106,2.3107,2.3107,0,0,0,0,0,0,2.2967,2.2971,2.3006,2.299,2.2995,2.3003,2.3013,2.3014,2.302,2.3028,2.3029,2.3021,2.3037,2.3039,2.3057,2.3068,2.305,2.3051,2.3105,2.3106,2.3107,2.3117,0,0,0,0,0,0,2.2966,2.2971,2.2978,2.2991,2.2996,2.3022,2.3013,2.3015,2.3022,2.3022,2.3033,2.3034,2.3036,2.3055,2.3059,2.3069,2.3052,2.3104,2.3105,2.3107,2.3116,2.3118,2.3121,0,0,0,0,0,2.2964,2.2979,2.2978,2.2983,2.3005,2.3022,2.3025,2.3029,2.3023,2.3031,2.3037,2.3034,2.3066,2.3057,2.3061,2.3072,2.3103,2.3105,2.3106,2.3115,2.3118,2.3121,0,0,0,0,0,0,2.2965,2.298,2.298,2.2999,2.301,2.3022,2.3031,2.3031,2.3043,2.3041,2.3044,2.3047,2.3066,2.307,2.306,2.3093,2.3084,2.3086,2.3089,2.3092,2.3094,2.3093,2.3053,0,0,0,0,0,2.2968,2.2981,2.2993,2.3009,2.3015,2.3023,2.303,2.3032,2.3043,2.3047,2.3054,2.3064,2.3077,2.3084,2.3096,2.3117,2.312,2.3127,2.3129,2.3131,2.3133,2.3147,2.315,2.3113,2.3113,2.3113,0,0,2.2973,2.2983,2.2991,2.301,2.3018,2.3032,2.3026,2.304,2.3051,2.3048,2.3067,2.3073,2.3084,2.3104,2.3113,2.3109,2.3144,2.3133,2.3134,2.3135,2.3149,2.3152,2.3155,2.3114,2.3113,2.3113,0,0,2.2989,2.2998,2.3013,2.3023,2.3037,2.3043,2.3047,2.306,2.3064,2.3083,2.3082,2.3095,2.3116,2.3125,2.3132,2.3157,2.3155,2.3161,2.3173,2.3186,2.3189,2.3192,2.3202,2.3206,2.3163,2.3163,2.3163,0,2.2994,2.3015,2.3021,2.3037,2.3046,2.3047,2.3063,2.3072,2.3088,2.3095,2.309,2.3119,2.3127,2.315,2.3157,2.3162,2.3168,2.3159,2.3189,2.3191,2.3194,2.3204,2.3208,2.3164,2.3164,2.3164,2.3164,0,2.3021,2.3036,2.3047,2.3066,2.3076,2.3092,2.31,2.311,2.3113,2.3119,2.314,2.3149,2.3165,2.317,2.3171,2.3195,2.3192,2.3188,2.3179,2.3198,2.3208,2.3211,2.3165,2.3165,2.3164,2.3164,0,0,2.3036,2.3061,2.3064,2.3074,2.3092,2.3103,2.312,2.3137,2.3147,2.3159,2.3174,2.3194,2.3191,2.32,2.3202,2.3214,2.3236,2.3209,2.3209,2.3215,2.3265,2.3268,2.3272,2.3235,2.3236,2.3236,2.3264,0,2.3055,2.3086,2.3093,2.312,2.3135,2.3139,2.3154,2.3166,2.3173,2.3188,2.3195,2.321,2.3205,2.3211,2.3223,2.3231,2.3246,2.3229,2.3249,2.325,2.3247,2.3277,2.328,2.3305,2.3268,2.3268,2.3269,0,2.3081,2.3097,2.3125,2.3144,2.3151,2.3164,2.3182,2.3195,2.321,2.3215,2.3227,2.3229,2.3248,2.3239,2.3265,2.3253,2.3262,2.3268,2.3269,2.3271,2.326,2.328,2.3313,2.3317,2.3274,2.3274,2.3273,0,2.3091,2.3119,2.3141,2.3149,2.317,2.318,2.319,2.3204,2.3215,2.3231,2.3238,2.3255,2.3264,2.3278,2.3285,2.3277,2.3312,2.3302,2.3317,2.3316,2.3323,2.3322,2.3358,2.3328,2.3328,2.3328,2.3328,0,2.3111,2.3129,2.3146,2.3159,2.318,2.3189,2.3209,2.3218,2.3232,2.3248,2.3251,2.3266,2.3275,2.3291,2.3296,2.3319,2.3322,2.3327,2.3328,2.3327,2.3327,2.3333,2.3331,2.3329,2.3329,2.3329,2.3328,0,2.3125,2.3137,2.3161,2.3181,2.3187,2.3201,2.3219,2.3232,2.3241,2.3261,2.3266,2.328,2.3299,2.3309,2.3331,2.3336,2.3361,2.3361,2.3357,2.3357,2.3371,2.337,2.3413,2.3419,2.3384,2.3385,2.3385,0,2.3137,2.3151,2.3175,2.3186,2.3197,2.3215,2.3227,2.3238,2.325,2.3271,2.3282,2.3302,2.3319,2.335,2.3361,2.338,2.3381,2.3395,2.3383,2.3383,2.3382,2.3382,2.3384,2.3396,2.3397,2.3397,2.3397,0,2.3158,2.3165,2.3183,2.3204,2.3219,2.3236,2.3252,2.3261,2.3275,2.3289,2.331,2.3323,2.3349,2.3369,2.339,2.3399,2.3401,2.3401,2.3405,2.3404,2.3401,2.3404,2.3363,2.34,2.3399,2.3399,2.3399,2.3399,2.3172,2.3186,2.3206,2.3227,2.3241,2.3257,2.3272,2.3285,2.3303,2.3326,2.3331,2.3354,2.3372,2.3399,2.341,2.3428,2.3425,2.3431,2.3433,2.3434,2.3436,2.3399,2.3432,2.3432,2.3432,2.3432,2.3432,0,2.3195,2.3209,2.3228,2.3252,2.327,2.3272,2.3291,2.3305,2.3326,2.3343,2.3361,2.3386,2.3407,2.3422,2.3444,2.3455,2.3457,2.3461,2.346,2.3463,2.3437,2.3431,2.3459,2.3459,2.3459,2.3459,2.3459,2.3459,2.3208,2.3233,2.3243,2.3275,2.3289,2.3313,2.3324,2.334,2.3354,2.3383,2.3401,2.3412,2.3429,2.3452,2.3472,2.3476,2.3484,2.3488,2.3492,2.3467,2.3464,2.3461,2.3456,2.3489,2.3489,2.3516,2.3517,2.3517]}]]